sat.trackr.live / text

‹ back to catalog

STARLINK-35754

NORAD 67054 · 2025-294AA

PAYLOAD ACTIVE UNKNOWN

§ Identity

Operator
Country
US
Launch date
2025-12-11
Launch site
AFETR
Launch vehicle
Mass (kg)
RCS (m²)

Purposes: comms

External: N2YO · Heavens-Above · Gunter

§ Orbital elements

Epoch: 2026-09-20T15:08:22.602624Z

Period
94.27 min
Inclination
43.0053°
Eccentricity
0.0001244
Mean motion
15.27589884 rev/d
Perigee alt
482.2 km
Apogee alt
483.9 km
Semi-major
6,861.2 km
B*
4.1528e-4
RAAN
17.0829°
Arg perigee
293.6147°
Mean anomaly
66.4575°
Rev number
4,461

§ Raw data

STARLINK-357541 67054U 25294AA  26263.63081716  .00011186  00000+0  41528-3 0  99942 67054  43.0053  17.0829 0001244 293.6147  66.4575 15.27589884 44614

JSON: /api/v1/satellites/67054 · /tle

For live sub-satellite position, see the globe view (requires WebGL).

§ Visibility from observer

Set your observer location to see the next 7 days of passes ≥ 10°. The values pass through the URL so the page stays shareable.

No JS? Fill the form by hand. The geolocation button needs JavaScript.